Weather History for Naples, FL

Change the Weather History Date:

Monday, November 19, 2012

  Actual Average Record
Temperature  
Mean Temperature 68 °F 71 °F  
Max Temperature 78 °F 81 °F 90 °F (1974)
Min Temperature 57 °F 62 °F 43 °F (1981)
Degree Days  
Heating Degree Days 0 0  
Month to date heating degree days 3 0  
Since 1 July heating degree days 4 1  
Cooling Degree Days 3 7  
Month to date cooling degree days 99 159  
Year to date cooling degree days 3940 3754  
Growing Degree Days 16 (Base 50)    
Moisture  
Dew Point 56 °F    
Average Humidity 68    
Maximum Humidity 93    
Minimum Humidity 43    
Precipitation  
Precipitation 0.00 in 0.06 in 0.84 in (1943)
Month to date precipitation 0.12 1.47  
Year to date precipitation 36.15 49.87  
Snow  
Snow 0.00 in - - ()
Month to date snowfall 0.0  
Since 1 July snowfall 0.0  
Since 1 September snowfall 0.0  
Snow Depth 0.00 in    
Sea Level Pressure  
Sea Level Pressure 30.10 in    
Wind  
Wind Speed 9 mph (NNE)    
Max Wind Speed 15 mph    
Max Gust Speed 20 mph    
Visibility 10 miles    
Events      
T = Trace of Precipitation, MM = Missing Value Source: NWS Daily Summary

Daily Weather History Graph

Daily Weather History Graph

Search for Another Location

Airport:

Trip Planner

Search our weather history database for the weather conditions in past years. The results will help you decide how hot, cold, wet, or windy it might be!

Date:

Astronomy

Nov. 19, 2012 Rise Set
Actual Time 6:48 AM EST 5:36 PM EST
Civil Twilight 6:24 AM EST 6:00 PM EST
Nautical Twilight 5:56 AM EST 6:28 PM EST
Astronomical Twilight 5:28 AM EST 6:56 PM EST
Moon 12:03 PM EST (11/19) 11:46 PM EST (11/19)
Length of Visible Light 11h 36m
Length of Day
10h 47m
Waxing Crescent, 40% of the Moon is Illuminated
Nov 19
Waxing Crescent
Nov 20
First Quarter
Nov 28
Full
Dec 6
Last Quarter
Dec 13
New

Hourly Weather History & Observations

Time (EST) Temp. Dew Point Humidity Pressure Visibility Wind Dir Wind Speed Gust Speed Precip Events Conditions
12:53 AM 62.1 °F 57.9 °F 86% 30.12 in 10.0 mi NE 10.4 mph - N/A   Clear
1:53 AM 60.1 °F 57.0 °F 90% 30.12 in 10.0 mi NE 10.4 mph - N/A   Clear
2:53 AM 60.1 °F 55.9 °F 86% 30.11 in 10.0 mi NE 10.4 mph - N/A   Clear
3:53 AM 59.0 °F 55.9 °F 90% 30.12 in 10.0 mi NE 8.1 mph - N/A   Clear
4:53 AM 59.0 °F 55.9 °F 90% 30.12 in 10.0 mi NNE 9.2 mph - N/A   Clear
5:53 AM 57.9 °F 55.0 °F 90% 30.13 in 10.0 mi NNE 8.1 mph - N/A   Clear
6:53 AM 57.0 °F 55.0 °F 93% 30.13 in 10.0 mi NNE 8.1 mph - N/A   Clear
7:53 AM 59.0 °F 55.0 °F 87% 30.14 in 10.0 mi NNE 10.4 mph - N/A   Clear
8:53 AM 64.0 °F 55.0 °F 73% 30.14 in 10.0 mi NNE 10.4 mph - N/A   Clear
9:53 AM 66.9 °F 55.0 °F 66% 30.15 in 10.0 mi NNE 9.2 mph - N/A   Clear
10:53 AM 71.1 °F 55.9 °F 59% 30.14 in 10.0 mi NE 5.8 mph - N/A   Clear
11:53 AM 73.9 °F 52.0 °F 46% 30.12 in 10.0 mi North 8.1 mph - N/A   Clear
12:53 PM 75.9 °F 51.1 °F 42% 30.08 in 10.0 mi North 6.9 mph - N/A   Clear
1:53 PM 75.9 °F 54.0 °F 46% 30.05 in 10.0 mi NW 6.9 mph - N/A   Clear
2:53 PM 73.0 °F 57.0 °F 57% 30.04 in 10.0 mi WNW 10.4 mph - N/A   Clear
3:53 PM 73.0 °F 57.0 °F 57% 30.04 in 10.0 mi NW 10.4 mph - N/A   Clear
4:53 PM 70.0 °F 61.0 °F 73% 30.04 in 10.0 mi NW 11.5 mph 19.6 mph N/A   Clear
5:53 PM 68.0 °F 61.0 °F 78% 30.05 in 10.0 mi NNW 4.6 mph - N/A   Clear
6:53 PM 66.9 °F 57.9 °F 73% 30.06 in 10.0 mi NNE 6.9 mph - N/A   Clear
7:53 PM 61.0 °F 57.0 °F 87% 30.07 in 10.0 mi ENE 10.4 mph - N/A   Clear
8:53 PM 59.0 °F 55.9 °F 90% 30.09 in 9.0 mi NE 8.1 mph - N/A   Clear
9:53 PM 59.0 °F 55.9 °F 90% 30.09 in 9.0 mi NNE 6.9 mph - N/A   Partly Cloudy
10:23 PM 59.0 °F 55.4 °F 88% 30.09 in 9.0 mi North 4.6 mph - N/A   Mostly Cloudy
10:53 PM 60.1 °F 55.9 °F 86% 30.09 in 10.0 mi North 10.4 mph - N/A   Overcast
11:53 PM 60.1 °F 55.9 °F 86% 30.07 in 10.0 mi North 4.6 mph - N/A   Overcast